Theta_e
349 348 350 350 349 347 347 350 349 349 349 349 348 349 350 350 350 350 349 349 348 346 348 347 347 346 348 347 348 347 347 346 345 344 344 347 347 346 345 344 343 345 345 347 349 348 348 347 346 350 347 347 348 348 346 342 344 344 342 342 342 341
347 348 349 350 349 347 348 347 347 347 347 347 347 347 347 348 350 348 349 347 347 346 344 345 346 349 346 348 347 348 347 346 345 344 345 346 347 346 345 344 344 342 344 347 349 345 346 348 348 349 347 347 348 349 344 343 343 342 341 341 342 341
348 348 349 350 348 347 346 346 345 346 346 346 345 346 345 346 346 345 346 345 347 346 344 344 346 347 346 348 348 348 347 346 344 344 343 344 346 346 345 346 344 344 343 346 345 345 340 341 343 346 345 343 346 348 344 344 341 340 340 340 340 342
348 347 349 349 347 346 345 345 346 345 344 345 345 343 343 342 341 343 343 345 345 344 344 345 345 349 345 346 347 348 347 345 345 344 343 343 344 345 345 346 347 345 342 337 338 338 338 338 338 341 342 345 345 345 344 343 341 340 340 341 340 342
349 348 349 349 346 345 344 345 345 344 344 345 344 344 343 342 343 342 341 342 342 345 344 344 344 343 342 344 345 345 344 343 342 341 342 341 342 340 343 339 339 342 336 334 333 337 340 340 339 341 343 343 344 343 343 343 342 340 339 340 340 340
349 347 347 349 346 345 345 344 344 344 344 344 345 344 343 343 343 342 340 339 342 342 345 342 343 342 341 342 343 343 343 342 340 339 341 341 341 339 337 337 334 333 334 334 332 333 335 338 337 340 343 344 344 342 343 343 341 339 338 337 336 337
349 347 348 350 348 346 345 345 345 344 344 345 344 344 344 345 344 343 341 343 344 339 342 342 342 342 340 341 341 341 342 341 340 338 340 339 340 339 335 336 334 332 332 332 332 332 333 332 338 340 343 341 341 342 342 341 339 336 335 334 334 335
347 347 348 350 349 344 345 346 346 346 345 346 344 344 346 346 347 344 346 349 345 341 342 341 341 340 341 340 340 340 340 339 340 338 339 336 338 337 334 333 335 331 329 328 331 333 332 337 336 338 339 339 340 341 341 340 336 335 333 332 332 333
346 348 348 351 349 345 346 346 346 346 345 348 345 345 348 349 348 346 349 345 344 342 341 342 339 339 341 338 340 339 339 338 338 338 337 332 337 337 334 331 334 331 329 333 339 334 337 338 338 336 337 338 340 340 341 342 334 332 331 329 329 331
346 349 348 349 350 347 344 345 346 346 349 346 347 348 352 350 349 349 348 344 345 341 340 341 339 339 339 339 340 339 339 338 338 339 335 331 337 340 333 330 337 334 332 334 334 335 335 335 338 337 336 337 338 339 341 342 333 332 330 329 329 329
346 349 347 347 350 349 345 346 346 347 349 346 347 351 351 350 349 349 349 348 345 346 344 344 339 340 341 341 344 340 340 342 339 340 337 332 340 341 337 336 339 334 333 338 340 335 335 334 337 337 336 337 337 339 339 343 333 330 328 327 327 327
347 349 347 347 350 350 346 347 347 347 347 346 352 350 349 349 348 348 349 350 346 346 348 350 344 342 346 345 345 347 344 347 346 344 343 338 340 341 339 337 339 336 347 339 341 336 338 336 337 338 335 334 336 336 339 337 332 331 329 327 325 324
348 351 348 347 347 350 349 349 348 348 348 348 351 349 348 349 349 349 349 350 347 346 346 352 346 343 345 342 345 345 343 346 343 344 344 340 342 338 338 341 335 343 340 342 338 339 337 337 336 337 337 335 335 335 336 334 333 330 328 326 325 325
350 350 348 348 348 349 350 349 349 350 350 349 348 347 349 351 349 350 349 350 347 345 345 351 346 345 345 341 344 345 344 344 342 346 346 346 346 343 341 341 341 341 342 339 340 337 337 334 335 337 337 336 334 334 334 332 332 330 329 326 325 325
349 349 348 348 348 348 351 350 348 349 349 350 347 347 349 351 349 349 349 348 348 345 344 346 346 347 346 342 342 340 340 343 345 342 349 344 347 345 344 341 341 340 341 341 337 337 335 335 334 334 336 334 329 330 329 327 328 327 328 327 327 325
349 348 349 350 348 350 350 351 348 349 350 350 347 347 349 349 348 349 348 347 347 346 345 344 344 345 347 342 340 337 341 340 343 345 345 346 346 339 344 342 343 344 337 335 335 336 338 335 335 332 330 330 330 329 327 327 325 325 326 327 325 325
349 349 349 349 349 351 349 350 349 348 350 350 347 347 348 349 349 348 348 346 346 346 343 344 344 344 345 342 338 337 338 341 344 345 346 345 344 343 341 342 341 342 339 337 333 332 336 335 334 332 332 329 328 329 328 329 329 327 331 322 323 326
350 350 349 348 348 349 348 349 348 347 349 347 348 347 347 347 347 347 347 345 345 346 342 343 344 343 342 344 337 337 336 346 342 345 345 342 343 344 341 343 341 342 342 337 337 334 334 333 332 329 328 330 329 329 328 328 327 329 325 323 325 324
349 349 349 348 348 349 348 349 348 347 348 347 347 348 346 345 346 347 347 345 344 345 342 343 343 342 343 342 337 337 343 342 341 347 343 340 342 341 342 345 341 344 347 344 339 335 334 333 331 329 327 325 325 327 327 326 325 326 323 322 322 320
348 348 349 348 347 346 345 344 342 343 344 344 346 346 346 344 345 346 347 345 343 345 342 344 342 342 344 344 339 341 343 342 341 344 342 337 341 340 341 342 344 342 343 339 339 335 333 329 327 327 326 327 329 329 326 325 325 321 322 322 319 318
347 347 347 345 344 343 342 342 342 340 340 343 343 344 344 344 344 344 345 345 343 343 341 344 342 342 344 347 345 345 343 340 344 342 342 340 345 344 347 343 341 342 339 338 336 336 331 328 325 324 326 324 323 324 326 324 322 318 319 320 320 319
347 347 347 345 343 343 343 342 340 339 340 341 342 341 340 343 344 346 345 344 343 341 341 343 344 341 344 347 347 345 343 340 343 341 343 345 344 344 341 339 340 337 338 338 333 334 329 327 323 320 318 318 320 323 325 323 320 320 320 320 320 318
347 347 346 345 344 343 344 345 344 342 341 341 344 344 342 343 346 346 345 346 344 342 341 342 345 342 344 347 346 345 344 343 344 343 342 341 341 340 341 338 338 335 333 336 335 336 330 328 322 323 322 318 314 314 318 321 322 321 320 319 318 317
347 347 346 345 344 345 345 347 348 347 345 342 341 345 346 345 345 346 345 346 343 344 341 342 343 342 345 346 347 347 346 346 345 345 343 337 338 338 339 340 338 337 335 329 330 329 331 330 328 324 317 318 318 318 312 313 315 318 320 320 319 318
346 346 346 345 345 345 345 345 346 347 346 343 343 341 341 340 341 344 344 344 343 344 343 343 343 343 344 346 348 347 346 346 346 346 340 336 336 336 337 339 339 337 333 331 329 329 330 330 331 330 327 321 318 316 317 316 316 315 319 316 318 318
346 346 345 346 346 345 343 343 342 340 337 338 335 336 336 336 338 340 341 345 344 343 343 343 342 344 344 347 346 346 346 346 346 346 340 336 334 337 337 339 340 339 334 336 332 328 327 330 331 333 332 336 332 324 321 317 315 309 317 318 317 315
345 344 346 347 347 345 344 344 343 341 339 338 336 337 340 341 341 343 345 344 343 343 343 343 343 343 346 348 348 347 347 347 346 348 345 340 336 334 337 337 338 339 337 337 334 328 327 328 329 331 332 333 335 333 332 317 315 312 308 313 315 313
345 345 346 347 346 345 344 344 343 342 340 339 338 338 341 342 343 344 345 345 344 343 343 343 344 343 346 348 347 346 348 347 345 346 345 344 339 336 336 337 336 339 338 337 334 329 329 329 326 327 330 330 331 333 329 325 321 315 311 307 308 313
346 346 347 347 345 346 345 345 344 342 339 340 341 340 341 343 342 343 344 344 344 342 343 343 344 344 345 347 347 347 347 346 345 344 343 345 343 339 336 334 335 336 336 336 336 334 332 330 329 328 328 329 331 329 327 326 324 321 315 310 308 308
346 346 347 346 346 345 345 345 344 342 340 339 341 341 341 341 341 342 344 343 344 342 341 343 343 344 344 346 347 348 346 345 345 345 343 343 344 343 339 335 335 335 337 336 338 336 334 333 331 331 330 329 328 328 328 326 326 324 321 317 310 308
345 346 346 345 345 344 345 345 344 342 341 339 341 341 339 340 341 341 342 343 343 343 342 343 344 344 345 345 347 347 345 346 345 344 343 343 342 341 341 340 337 338 338 338 338 337 336 336 334 335 333 330 329 328 326 324 322 323 322 319 315 310
343 344 345 345 344 344 344 345 344 342 341 341 341 341 339 339 340 340 341 342 342 343 342 343 344 344 344 345 345 345 346 345 345 345 343 344 343 342 342 343 343 341 339 338 338 337 336 334 335 334 334 335 334 331 333 329 328 327 324 323 322 311
341 345 345 345 344 344 344 343 342 342 342 342 342 342 340 341 341 340 341 342 342 341 342 342 342 343 344 345 346 345 345 344 344 344 344 343 345 343 343 343 342 340 340 337 335 335 334 332 333 331 331 333 333 332 328 329 330 330 328 328 325 318
343 346 345 346 344 343 343 343 343 342 342 343 342 343 341 341 342 342 342 343 342 342 342 342 342 343 345 346 346 347 345 344 344 345 345 344 344 344 343 343 341 340 339 339 337 336 335 333 334 336 337 332 332 329 330 330 330 331 328 326 324 320
343 345 346 345 344 343 343 344 344 343 343 343 343 343 342 344 343 343 343 343 343 344 343 343 344 345 346 346 346 346 345 345 345 345 344 344 344 344 344 342 341 340 341 340 339 338 337 335 334 333 331 333 332 331 331 332 331 329 329 327 326 325
343 344 345 344 343 343 343 344 344 344 345 345 343 344 343 344 344 344 343 344 343 344 345 345 346 346 346 346 346 346 345 345 346 345 344 344 343 343 343 342 340 340 338 340 337 334 335 335 335 333 330 332 333 331 331 331 332 333 332 333 328 327
342 344 344 343 343 343 343 343 344 345 346 345 344 343 343 344 345 345 344 345 345 345 346 346 346 346 346 346 346 345 345 345 345 345 344 343 343 343 343 341 339 337 337 338 337 335 335 335 335 334 332 332 332 331 332 332 331 331 332 331 329 326
Wind_Speed
13 14 13 11 10 11 12 16 14 16 17 16 16 15 14 15 14 13 12 12 12 8 7 7 9 9 12 9 11 12 12 11 10 10 10 8 6 5 4 5 4 4 4 6 6 5 5 5 2 7 12 10 9 6 5 5 6 6 7 7 7 7
12 14 13 9 9 8 11 13 11 11 11 12 13 14 11 10 12 10 14 10 7 6 6 6 6 9 8 9 10 13 11 11 10 10 9 7 6 4 3 3 3 4 4 5 8 4 3 4 2 7 11 9 5 3 5 4 6 6 7 6 6 9
14 13 14 11 10 9 12 10 12 10 9 12 11 11 9 10 9 10 10 9 7 6 7 7 6 8 7 11 9 12 12 10 10 10 9 7 5 4 3 3 4 4 5 6 4 3 4 4 3 7 10 4 3 2 5 4 6 6 6 6 5 13
15 15 14 10 9 10 9 10 9 9 8 8 8 9 8 9 8 9 8 7 6 7 7 6 11 14 10 8 9 11 12 11 10 10 9 5 5 4 4 5 5 5 5 4 4 5 5 5 5 4 6 3 3 4 5 5 5 6 6 8 7 14
14 13 13 9 10 10 9 8 9 9 9 8 8 8 7 7 7 7 8 7 8 6 6 7 6 5 4 7 8 7 6 5 5 5 8 4 4 5 4 5 4 4 4 5 6 6 3 6 7 5 4 3 4 5 5 5 6 7 7 6 8 15
14 13 13 10 11 11 11 8 9 9 9 9 8 8 8 8 8 9 7 8 7 7 6 5 5 5 5 7 8 7 6 5 6 6 7 5 5 4 5 5 5 5 5 4 7 6 7 7 9 4 3 4 5 5 5 5 6 7 7 6 9 15
14 13 13 12 11 11 10 9 8 9 9 9 9 8 8 8 9 9 9 9 7 6 7 7 7 7 5 6 7 7 7 6 5 5 7 6 5 5 6 5 5 5 6 7 9 5 4 9 12 4 4 5 5 5 6 7 7 8 7 7 9 15
13 13 12 13 11 12 10 10 9 10 10 10 10 8 8 8 9 9 8 6 7 5 5 8 7 7 5 5 6 7 7 6 6 6 7 7 6 5 6 6 5 7 8 8 8 4 4 13 13 6 5 5 4 5 5 6 8 8 7 6 7 12
14 14 11 12 12 11 11 10 10 10 8 10 8 9 9 8 8 9 7 8 5 5 4 4 7 6 5 6 7 6 6 7 7 6 7 7 6 6 6 7 6 6 7 5 1 4 7 9 14 8 5 6 4 4 4 3 7 8 7 6 6 9
14 14 11 12 11 11 11 11 10 10 7 10 7 8 7 7 8 7 6 9 7 7 6 5 6 6 6 7 6 8 8 7 8 6 7 7 7 6 6 6 6 5 3 4 4 3 6 7 11 12 6 3 4 3 4 2 8 7 7 7 6 7
15 13 12 11 11 10 11 10 11 10 8 9 8 7 7 8 7 7 6 8 8 7 8 6 7 6 5 6 4 8 7 7 8 7 7 7 6 5 5 6 3 4 4 3 2 4 4 6 7 14 8 5 3 3 3 2 7 8 8 7 6 5
13 11 11 11 11 10 10 9 10 10 9 10 7 7 7 7 7 8 7 5 7 5 4 4 7 6 3 3 3 2 4 2 3 4 4 6 5 5 4 4 3 4 0 3 4 3 4 6 7 9 14 8 5 3 3 3 7 8 8 8 7 6
13 11 11 10 8 9 9 8 10 8 7 9 7 6 7 5 8 6 7 7 6 5 4 3 6 6 3 4 3 3 3 2 3 3 3 5 4 5 4 3 5 2 3 3 4 4 5 6 6 6 9 13 9 7 4 4 5 8 9 8 7 7
11 12 12 9 7 8 8 7 9 6 8 7 6 7 6 4 7 6 8 6 6 5 5 2 5 6 4 5 3 3 3 3 4 3 3 4 3 3 3 3 3 4 3 4 2 4 5 5 6 4 3 6 4 2 5 5 4 7 8 8 8 7
11 11 12 11 10 8 8 7 8 7 9 7 7 6 6 5 6 6 8 7 6 5 5 4 5 4 4 5 4 5 5 3 3 4 2 4 2 2 3 3 4 3 2 2 3 5 3 6 5 6 3 5 5 4 4 4 5 4 7 8 8 8
12 13 11 9 9 7 8 8 7 7 8 8 7 5 6 6 5 7 7 7 6 6 5 5 6 5 4 4 5 6 5 4 4 3 4 3 2 5 3 4 3 3 4 3 4 3 3 6 6 8 6 6 5 4 4 3 3 3 3 6 6 8
13 13 11 10 10 7 8 7 7 7 9 7 8 5 6 5 5 7 6 7 7 6 5 5 6 6 5 4 5 5 4 5 5 4 4 4 3 4 5 3 4 3 4 3 4 5 5 5 7 6 5 6 5 4 3 3 2 2 1 4 4 5
12 11 10 10 9 7 8 6 6 7 7 7 7 6 6 6 6 6 7 7 7 6 7 6 7 6 7 4 6 5 6 5 6 5 5 5 4 4 5 3 4 3 3 4 2 6 5 5 6 6 5 4 4 3 2 2 2 1 2 3 4 3
12 11 10 10 10 7 8 7 6 7 7 7 7 6 7 7 6 7 7 9 10 7 8 7 7 8 7 5 5 6 5 7 5 4 6 5 3 4 5 2 4 2 2 2 4 5 5 5 7 6 5 5 4 1 1 2 4 3 3 3 3 5
12 11 9 10 10 8 8 8 7 8 8 8 7 7 7 7 7 8 8 8 9 7 8 6 8 8 7 5 6 5 7 6 5 5 6 6 3 5 5 4 4 3 2 3 3 6 6 8 8 7 5 3 1 1 1 1 1 4 3 3 4 4
13 12 11 11 11 10 10 8 6 9 9 9 8 7 7 7 7 7 9 9 10 8 8 7 8 8 7 6 5 7 7 6 4 5 5 5 3 6 6 5 3 3 2 3 2 4 7 8 8 5 4 3 3 2 1 1 3 3 2 1 3 3
12 13 12 11 11 9 9 8 7 8 8 9 8 8 8 7 7 6 7 9 9 9 8 8 7 8 6 5 5 7 7 6 6 5 5 3 7 7 7 5 3 3 1 2 2 4 8 10 4 6 5 4 2 1 1 1 1 1 1 3 3 4
12 13 11 12 11 10 8 8 7 6 8 8 6 5 6 7 7 7 8 7 10 8 8 8 8 9 7 5 6 6 7 7 6 6 6 5 6 5 5 6 4 4 4 1 1 2 8 6 6 6 4 4 4 3 1 1 2 1 3 2 3 4
13 12 11 12 12 10 10 8 6 6 6 8 6 4 4 5 6 7 10 8 9 8 9 9 9 9 7 6 6 7 7 6 6 6 6 5 3 7 5 5 5 4 4 5 3 3 4 6 5 8 7 5 5 4 3 4 3 3 3 3 3 3
14 14 11 12 13 11 10 9 7 6 6 6 5 6 6 8 8 6 8 9 10 9 10 9 9 9 8 8 7 7 7 7 7 7 9 6 4 4 6 4 5 5 6 6 7 5 5 7 6 8 3 4 3 3 5 5 6 3 3 2 2 3
12 12 12 12 12 11 10 9 10 10 10 9 10 10 11 11 10 8 9 8 10 10 10 8 9 9 8 8 8 8 7 8 8 7 10 9 6 5 6 7 6 6 7 5 6 4 4 4 6 5 8 0 0 1 2 7 7 4 2 2 3 4
12 13 13 13 12 11 11 9 11 11 10 9 9 7 7 7 8 7 7 8 9 9 9 9 9 9 9 8 8 8 8 7 7 7 8 11 9 8 6 8 7 6 8 7 6 7 8 7 5 6 7 3 1 2 2 9 3 6 4 3 3 4
12 12 12 14 14 13 12 10 10 11 10 9 8 8 9 9 8 8 9 9 9 9 9 9 8 9 9 9 8 8 7 7 7 7 8 9 12 9 7 5 8 8 7 5 7 7 7 7 8 6 5 4 4 5 4 5 6 7 6 6 3 3
14 15 14 16 16 15 13 11 10 9 10 8 8 8 7 8 9 9 10 9 9 9 9 9 9 8 9 9 8 8 8 7 7 7 7 7 8 12 12 8 7 6 7 8 6 7 6 7 7 6 5 6 4 4 3 4 4 6 3 3 4 6
15 14 14 17 16 16 13 11 10 11 11 9 7 8 8 9 9 9 10 11 9 9 9 8 8 9 9 10 9 8 8 8 8 7 7 8 8 9 12 12 11 9 8 8 6 5 7 7 7 6 6 4 5 4 3 2 2 3 3 6 6 8
15 13 14 17 17 17 15 12 10 11 12 11 10 10 10 11 10 10 10 11 10 8 9 8 8 8 9 10 9 8 8 7 7 7 7 8 8 8 7 9 12 11 11 10 7 8 5 5 7 5 5 6 6 5 4 3 4 4 3 3 3 6
16 15 14 15 16 16 14 12 10 11 12 12 11 10 12 12 12 13 10 12 10 8 8 8 8 7 9 9 9 8 8 8 7 6 7 6 7 7 8 6 7 8 8 8 7 6 6 6 5 3 1 1 2 1 3 3 3 4 4 3 2 7
20 17 16 15 15 15 13 12 11 12 11 11 11 10 11 11 11 11 10 11 12 11 9 9 9 9 9 10 9 8 8 7 7 7 6 6 6 7 7 6 6 7 8 9 7 7 6 6 5 5 4 3 3 2 5 3 4 3 2 3 3 4
18 16 15 15 15 13 14 12 12 12 11 11 11 11 11 11 11 11 9 11 12 11 10 11 10 10 10 10 9 8 9 8 8 7 7 6 6 6 7 6 7 7 7 8 9 8 7 7 6 4 3 3 4 5 4 3 4 5 4 4 3 4
16 16 15 15 13 14 13 13 12 12 12 11 12 10 11 10 10 11 9 11 11 10 10 10 11 9 10 10 9 8 9 8 8 8 7 6 6 6 7 6 7 7 6 6 8 7 6 8 7 7 2 4 4 4 5 5 3 6 6 4 3 2
17 16 16 17 15 14 13 12 13 13 13 13 11 10 10 9 10 10 9 11 11 11 10 10 9 9 10 10 10 9 9 9 8 8 8 7 7 6 7 7 6 6 6 5 6 6 5 4 5 8 6 4 5 6 5 6 7 8 6 3 4 4
17 15 17 19 17 14 12 12 13 13 13 13 13 12 11 11 12 10 10 9 10 11 10 9 9 10 10 10 9 9 9 8 8 7 8 7 8 7 7 7 6 6 6 6 7 8 7 7 5 6 6 7 6 5 6 7 5 6 6 4 5 5
Wind_Direction
161 163 159 150 147 150 155 154 152 150 151 150 149 148 150 149 148 153 152 153 155 156 156 149 157 160 158 158 162 149 150 149 152 153 158 156 158 156 144 127 132 131 131 134 129 117 106 99 55 68 71 69 66 51 53 53 70 79 82 82 88 96
162 161 162 146 146 154 154 157 152 152 152 154 154 155 154 152 150 151 153 154 160 164 169 155 172 161 164 165 162 154 152 154 156 159 163 161 156 163 161 155 152 168 173 167 159 152 132 103 84 68 73 69 58 56 92 76 82 81 83 85 95 103
162 165 156 150 150 148 156 159 154 154 153 155 161 161 164 160 154 156 156 164 167 171 174 166 175 170 171 169 157 159 156 160 159 160 170 166 165 177 196 194 201 210 214 202 198 201 153 154 129 92 70 57 46 23 80 88 84 81 84 90 94 103
160 166 153 158 148 147 160 161 154 156 152 156 161 169 171 166 166 164 164 172 176 181 171 157 183 183 173 157 151 164 163 162 166 164 172 173 182 205 218 229 235 230 240 212 213 232 156 154 132 100 105 90 68 60 59 62 76 85 95 99 98 102
162 165 156 154 140 151 165 160 160 158 159 161 166 172 169 174 165 171 170 177 182 182 166 171 174 180 154 155 159 162 163 170 165 178 174 195 177 196 201 213 211 218 237 218 206 223 179 139 104 85 89 95 95 95 86 81 85 92 89 89 100 98
163 164 162 152 151 155 167 167 166 160 163 161 174 168 169 181 162 172 177 183 193 172 171 156 148 181 183 157 170 162 174 181 185 181 174 207 187 193 186 218 202 201 226 232 222 206 190 125 109 104 103 89 97 98 103 102 91 82 81 86 93 96
164 163 164 156 153 158 172 170 169 158 166 166 179 171 171 188 164 173 183 185 163 179 174 148 164 187 192 172 169 169 180 184 189 183 169 208 195 191 182 215 204 206 211 226 241 196 124 108 113 105 85 101 108 113 116 108 102 96 93 94 97 98
163 161 168 159 154 163 169 171 170 161 170 173 173 182 170 186 161 175 191 165 149 166 177 151 168 178 196 178 178 178 176 178 201 188 170 205 202 188 184 218 212 205 215 221 223 131 135 94 119 122 141 106 109 129 136 129 118 114 112 108 102 101
162 166 169 155 157 163 172 170 169 167 176 173 181 183 176 173 163 177 180 145 155 149 191 160 154 182 195 200 178 168 182 181 194 196 168 198 213 180 187 215 220 206 216 235 186 102 97 114 122 138 126 130 131 154 152 166 121 117 108 99 101 106
162 166 170 155 163 165 175 170 168 169 181 168 190 180 164 164 164 172 173 150 162 165 195 159 167 181 203 196 173 174 189 181 186 201 168 191 222 173 186 213 218 214 203 221 108 126 112 118 108 116 123 146 137 167 180 187 115 115 120 121 121 115
163 164 171 165 167 165 173 172 166 170 175 175 188 168 164 162 166 167 183 160 167 175 190 162 172 183 216 183 193 175 191 184 178 202 165 190 221 170 188 221 168 210 249 129 113 93 106 101 107 116 134 155 194 167 184 194 123 127 125 123 126 121
164 171 171 171 165 167 168 172 168 169 170 177 174 155 176 158 169 161 175 163 159 185 191 158 157 183 191 170 216 182 176 152 161 202 165 168 219 163 187 222 153 221 164 93 96 118 96 105 116 127 140 166 171 171 195 173 140 135 135 134 129 125
161 167 172 174 168 163 165 168 167 169 165 170 162 170 168 172 164 151 168 164 152 186 186 159 150 168 180 182 194 207 152 194 170 224 148 177 197 161 184 211 170 207 102 72 107 78 95 106 112 123 144 153 164 166 179 169 151 132 137 137 134 130
159 163 169 169 182 159 167 165 161 170 153 166 165 174 166 164 155 147 157 155 162 179 180 161 146 175 175 177 182 178 192 180 190 171 178 172 149 158 168 189 140 77 76 87 95 97 110 119 118 126 123 127 108 126 148 156 109 133 147 137 137 146
164 166 167 175 180 160 162 167 170 163 158 172 168 176 155 158 160 142 151 164 172 171 178 172 156 174 189 171 174 167 211 189 171 171 141 128 127 148 207 117 99 114 107 128 126 131 174 115 138 132 108 95 100 94 82 78 84 81 120 136 150 148
166 170 177 163 166 158 164 175 177 160 161 167 163 168 149 163 162 145 158 160 171 174 165 183 157 179 201 179 171 170 198 182 172 143 123 142 176 196 127 113 128 145 133 187 129 154 92 105 90 77 78 81 82 89 89 88 78 64 140 162 142 155
170 171 176 155 163 158 173 183 174 165 160 167 153 160 156 158 162 147 154 163 170 173 164 193 161 177 205 197 156 186 177 188 136 133 143 168 214 160 125 145 155 142 183 141 163 129 95 102 112 103 101 97 81 69 64 78 97 146 175 94 118 116
167 170 170 158 163 164 178 183 173 174 151 156 159 166 164 166 158 151 158 165 168 170 168 199 163 171 208 188 175 169 188 144 137 156 145 169 214 140 132 151 138 154 195 142 139 113 117 116 90 78 56 70 96 78 72 69 104 219 97 124 111 100
166 169 165 161 162 166 178 191 185 162 152 162 168 181 162 170 164 162 179 158 166 170 183 188 165 173 206 194 173 172 161 137 153 160 136 174 216 132 134 147 121 80 49 75 102 129 132 111 101 93 83 58 53 75 136 165 209 167 109 116 122 106
166 168 165 164 166 167 178 196 183 161 161 169 176 185 166 174 168 168 181 159 165 167 186 171 176 175 205 205 164 164 134 151 165 138 146 181 194 131 130 114 93 111 62 79 84 108 91 94 88 92 96 118 163 156 53 325 51 82 76 84 104 144
166 167 173 172 171 168 179 187 191 177 168 169 182 180 169 174 177 171 173 157 163 165 183 174 179 176 202 212 165 137 139 160 150 147 144 187 148 107 86 79 99 73 101 103 88 99 106 102 107 107 84 62 50 49 64 5 55 76 92 127 149 120
163 173 178 177 167 167 179 192 184 175 170 169 182 182 173 172 172 161 172 152 165 161 185 173 179 178 200 201 136 135 147 168 146 159 153 117 80 92 103 111 107 90 39 71 120 143 122 116 121 143 145 142 110 125 61 44 43 108 214 199 149 116
169 175 176 174 170 170 173 186 190 178 171 165 187 183 181 163 161 159 175 156 161 163 186 172 181 178 194 186 152 145 153 169 153 149 149 116 120 102 111 133 135 136 125 28 111 142 139 135 138 147 160 143 171 157 333 345 315 222 237 167 113 123
173 175 177 178 169 164 172 176 188 172 163 165 176 182 157 153 166 167 171 161 165 162 184 174 188 179 187 176 164 157 157 156 157 147 127 139 146 138 131 151 154 148 135 142 180 156 154 152 156 157 171 213 165 183 138 209 181 217 224 151 131 141
171 176 181 178 168 159 166 172 172 164 167 163 176 185 166 175 178 177 160 167 164 169 183 179 187 184 182 171 162 163 160 159 164 155 112 153 196 163 150 160 165 160 167 165 166 163 169 180 199 189 162 182 129 221 231 149 154 176 195 145 171 155
172 172 177 180 165 157 167 172 173 172 182 187 184 187 185 176 174 182 170 165 161 175 181 183 187 183 175 171 170 173 171 167 170 158 136 159 184 202 166 168 176 181 180 192 159 154 178 217 223 219 231 178 50 264 179 142 153 170 187 162 184 166
178 175 175 175 166 160 169 184 182 181 187 191 188 188 169 168 176 171 167 169 164 176 184 184 186 185 168 174 175 173 174 170 163 157 148 147 163 184 191 172 175 191 184 182 164 173 192 202 201 243 241 247 262 236 173 151 178 106 164 183 195 186
177 177 179 172 170 168 174 182 183 181 186 194 190 179 172 175 178 168 171 174 167 177 184 187 184 186 163 169 177 175 175 170 160 165 154 149 159 175 189 192 183 189 179 180 172 178 192 179 191 210 222 223 224 261 192 191 140 166 152 161 201 215
181 178 175 176 173 172 172 179 185 182 184 195 183 174 179 174 179 170 172 176 175 174 183 184 186 181 161 176 178 178 173 171 169 168 162 157 159 161 162 183 206 191 192 185 190 186 184 181 186 206 188 211 205 240 203 216 158 169 139 153 170 178
183 185 173 176 176 169 167 176 188 182 185 187 189 171 184 174 180 178 173 177 175 175 181 179 181 184 169 175 182 178 174 175 177 164 167 163 161 160 155 172 197 196 190 181 189 189 190 182 188 202 194 187 187 204 261 221 240 238 186 172 165 182
187 186 181 177 174 165 169 181 184 178 178 189 194 175 185 179 178 184 176 174 176 179 179 178 174 183 171 177 179 180 178 173 178 168 173 166 170 163 168 166 183 183 173 173 176 182 190 178 179 195 190 183 187 201 194 212 199 210 219 228 123 167
187 192 183 177 171 166 170 179 180 177 180 191 199 184 191 182 182 183 177 169 175 180 178 174 178 175 175 179 176 181 182 174 180 171 178 171 168 165 166 173 164 162 161 163 171 170 183 175 175 174 166 129 105 253 241 237 259 193 209 251 165 165
189 191 177 170 168 170 173 177 178 179 185 194 203 188 191 184 184 186 180 168 173 181 175 175 182 182 179 182 176 179 177 176 175 179 178 180 170 158 154 159 166 166 163 156 171 179 185 179 171 179 183 172 131 180 226 241 298 277 206 245 236 168
190 189 175 167 168 170 178 177 175 178 188 195 204 191 192 187 186 188 184 173 174 177 179 179 180 185 180 180 177 179 175 176 178 179 179 178 170 151 159 156 170 171 173 163 168 186 187 184 169 176 100 102 176 189 229 249 258 275 237 230 231 221
188 188 171 163 167 175 180 177 176 181 189 195 201 196 192 188 183 187 186 172 174 176 181 180 184 178 178 179 175 179 178 179 175 179 175 178 168 159 158 160 169 177 154 150 152 162 172 170 174 164 149 152 156 182 195 227 228 265 259 220 229 252
190 192 174 159 164 177 183 182 180 186 192 195 193 196 191 183 182 187 188 175 175 177 178 179 178 178 175 177 176 178 177 179 178 174 174 174 172 167 160 162 166 147 151 161 156 163 170 157 165 148 165 192 181 200 193 212 210 234 229 186 199 247
188 197 181 161 164 175 185 185 189 191 194 194 190 195 191 182 179 186 188 181 176 175 177 177 175 174 173 176 177 177 175 178 180 175 174 177 174 170 167 168 166 159 169 170 164 177 175 175 155 126 172 203 208 203 202 210 224 223 216 196 204 216